GW3844 Weather Reports


Display with metric or nautical units.
time (UTC)temp
F
wind
direction
speed
MPH
gust
MPH
rain 1hr
in
rain 24hr
in
rain mn
in
humidity
%
barometer
mb
20260504150924 80 108 1.0 2.0 0.00 0.12 0.12 92 1011.0
20260504150421 80 99 1.0 2.0 0.00 0.12 0.12 91 1011.3
20260504140847 81 112 1.0 1.0 0.00 0.12 0.12 89 1010.4
20260504140343 81 116 1.0 1.0 0.00 0.12 0.12 90 1010.5
20260504130812 81 91 0.0 0.0 0.00 0.12 0.12 89 1009.7
20260504130308 81 101 0.0 0.0 0.00 0.12 0.12 89 1009.8
20260504120232 81 121 1.0 1.0 0.00 0.12 0.12 88 1009.2
20260504110659 85 117 4.0 6.0 0.00 0.12 0.12 73 1008.7
20260504110155 85 133 4.0 4.0 0.00 0.12 0.12 80 1008.4
20260504100119 89 107 2.0 2.0 0.00 0.12 0.12 81 1007.9
20260504081512 89 321 3.0 3.0 0.00 0.12 0.12 78 1007.0
20260504081008 89 84 2.0 2.0 0.00 0.12 0.12 80 1007.5
20260504080504 89 348 2.0 2.0 0.00 0.12 0.12 77 1007.5
20260504050317 87 63 4.0 4.0 0.00 0.12 0.12 83 1011.0
20260504045814 88 299 3.0 3.0 0.00 0.12 0.12 84 1011.4
20260504045309 87 5 6.0 7.0 0.00 0.12 0.12 84 1011.4
20260504044806 88 315 3.0 4.0 0.00 0.12 0.12 83 1011.5
20260504044304 87 294 2.0 4.0 0.00 0.12 0.12 82 1011.4
20260504043801 87 38 3.0 3.0 0.00 0.12 0.12 86 1011.6
20260504043258 86 127 0.0 1.0 0.00 0.12 0.12 87 1011.7
20260504042755 86 337 5.0 7.0 0.00 0.12 0.12 88 1011.7
20260504042251 86 324 3.0 3.0 0.00 0.12 0.12 89 1011.7
20260504041748 85 359 4.0 6.0 0.00 0.12 0.12 89 1011.7
20260504041244 85 106 3.0 4.0 0.00 0.12 0.12 89 1011.8
20260504040739 84 62 1.0 2.0 0.00 0.12 0.12 91 1011.9
20260504040237 84 73 2.0 3.0 0.00 0.12 0.12 92 1011.9
20260504035728 84 316 3.0 4.0 0.00 0.12 0.12 92 1012.1
20260504035225 83 72 3.0 4.0 0.00 0.12 0.12 92 1012.3
20260504034723 84 330 4.0 6.0 0.00 0.12 0.12 91 1012.2
20260504034220 85 101 0.0 1.0 0.00 0.12 0.12 90 1012.1
20260504033718 85 70 1.0 1.0 0.00 0.12 0.12 89 1012.1
20260504033215 84 33 3.0 3.0 0.00 0.12 0.12 89 1012.2
20260504032711 84 321 4.0 4.0 0.00 0.12 0.12 90 1012.4
20260504032203 84 17 1.0 2.0 0.00 0.12 0.12 91 1012.5
20260504031659 85 77 0.0 1.0 0.00 0.12 0.12 88 1012.5
20260504031156 85 101 0.0 0.0 0.00 0.12 0.12 89 1012.2
20260504030652 84 122 1.0 2.0 0.00 0.12 0.12 91 1012.3
20260504030150 83 59 4.0 4.0 0.00 0.12 0.12 92 1012.3
20260504025646 82 83 1.0 1.0 0.00 0.12 0.12 94 1012.5
20260504025142 82 359 3.0 3.0 0.00 0.12 0.12 94 1012.4
20260504024635 82 31 2.0 2.0 0.00 0.12 0.12 94 1012.4
20260504024131 82 114 2.0 3.0 0.00 0.12 0.12 95 1012.2
20260504023627 82 18 2.0 2.0 0.00 0.12 0.12 95 1012.6
20260504023124 82 23 3.0 3.0 0.00 0.12 0.12 96 1012.3
20260504022620 82 310 3.0 4.0 0.00 0.12 0.12 98 1012.5
20260504022116 82 4 4.0 4.0 0.00 0.12 0.12 99 1012.5
20260504021614 82 77 1.0 2.0 0.00 0.12 0.12 99 1012.4
20260504021110 82 97 3.0 4.0 0.00 0.12 0.12 94 1012.5
20260504020608 82 359 5.0 6.0 0.00 0.12 0.12 95 1012.6
20260504020104 82 359 4.0 4.0 0.00 0.12 0.12 96 1012.5
20260504015600 82 95 1.0 1.0 0.00 0.12 0.12 96 1012.5
20260504015056 83 81 3.0 4.0 0.00 0.12 0.12 94 1012.2
20260504014552 82 63 1.0 1.0 0.00 0.12 0.12 97 1012.5
20260504014050 81 90 0.0 0.0 0.00 0.12 0.12 98 1012.3
20260504013547 80 107 0.0 0.0 0.00 0.12 0.12 99 1012.5
20260504013044 79 77 1.0 1.0 0.00 0.12 0.12 99 1012.3
20260504012541 79 97 2.0 2.0 0.00 0.12 0.12 99 1012.5
20260504012039 78 68 0.0 1.0 0.00 0.12 0.12 99 1012.6
20260504011536 78 83 1.0 1.0 0.00 0.12 0.12 99 1012.5
20260504011032 78 92 0.0 0.0 0.00 0.12 0.12 99 1012.4
20260504010528 78 94 1.0 2.0 0.00 0.12 0.12 99 1012.4
20260504010024 79 63 1.0 1.0 0.00 0.12 0.12 99 1012.3
20260504005520 78 52 1.0 2.0 0.00 0.12 0.12 99 1012.3
20260504005013 78 74 0.0 1.0 0.00 0.12 0.12 99 1011.9
20260504004510 78 64 0.0 1.0 0.00 0.12 0.12 98 1012.0
20260504004007 78 56 1.0 2.0 0.00 0.12 0.12 99 1012.1
20260504003503 78 61 1.0 1.0 0.00 0.12 0.12 99 1011.8
20260504003000 78 52 1.0 1.0 0.00 0.12 0.12 99 1011.8
20260504002457 78 49 1.0 1.0 0.00 0.12 0.12 99 1011.8
20260504001954 78 63 1.0 2.0 0.00 0.12 0.12 99 1011.6
20260504001452 78 97 2.0 2.0 0.00 0.12 0.12 99 1011.6
20260504000948 77 49 2.0 3.0 0.00 0.12 0.12 99 1011.4
20260504000445 77 85 1.0 2.0 0.00 0.12 0.12 99 1011.6
20260503235942 77 62 2.0 2.0 0.00 0.12 0.12 99 1011.4
20260503235440 77 94 1.0 1.0 0.00 0.12 0.12 99 1011.6
20260503234937 77 92 0.0 1.0 0.00 0.12 0.12 99 1011.4
20260503234435 77 94 0.0 0.0 0.00 0.12 0.12 99 1011.3
20260503233933 76 64 1.0 2.0 0.00 0.12 0.12 99 1011.3
20260503233429 76 99 0.0 0.0 0.00 0.12 0.12 99 1011.0
20260503232925 76 64 2.0 2.0 0.00 0.12 0.12 99 1011.3
20260503232422 76 65 1.0 2.0 0.00 0.12 0.12 99 1011.3
20260503231920 76 67 1.0 1.0 0.00 0.12 0.12 99 1010.9
20260503231417 76 72 1.0 1.0 0.00 0.12 0.12 99 1011.0
20260503230914 76 89 0.0 0.0 0.00 0.12 0.12 99 1010.8
20260503230410 76 75 0.0 0.0 0.00 0.12 0.12 99 1010.7
20260503225908 76 90 0.0 0.0 0.00 0.12 0.12 99 1010.8
20260503225404 75 49 2.0 3.0 0.00 0.12 0.12 99 1010.8
20260503224900 75 45 2.0 2.0 0.00 0.12 0.12 99 1010.6
20260503224357 75 60 2.0 2.0 0.00 0.12 0.12 99 1010.7
20260503223855 75 75 2.0 2.0 0.00 0.12 0.12 99 1010.6
20260503223353 75 75 1.0 2.0 0.00 0.12 0.12 99 1010.4
20260503222848 75 87 2.0 2.0 0.12 0.12 0.12 99 1010.2
20260503222347 75 74 0.0 0.0 0.12 0.12 0.12 99 1010.3
20260503221845 75 61 1.0 2.0 0.00 0.10 0.10 99 1010.3
20260503221343 75 53 3.0 3.0 0.07 0.10 0.10 99 1010.5
20260503220838 76 76 1.0 2.0 0.07 0.10 0.10 99 1010.3
20260503220336 76 36 0.0 0.0 0.07 0.10 0.10 99 1010.1
20260503215832 76 40 2.0 3.0 0.00 0.09 0.09 99 1010.0
20260503215330 76 66 3.0 3.0 0.00 0.09 0.09 99 1010.3
20260503214827 76 64 2.0 4.0 0.00 0.09 0.09 99 1009.9
20260503214325 76 77 1.0 2.0 0.00 0.09 0.09 99 1010.1
20260503213822 76 69 1.0 2.0 0.00 0.09 0.09 99 1010.1
20260503213319 76 71 2.0 2.0 0.00 0.09 0.09 99 1009.9
20260503212816 76 97 0.0 1.0 0.00 0.09 0.09 99 1010.0
20260503212314 76 72 1.0 2.0 0.00 0.09 0.09 99 1009.7
20260503211811 76 66 1.0 2.0 0.00 0.09 0.09 99 1009.9
20260503211308 76 53 0.0 1.0 0.00 0.09 0.09 99 1009.7
20260503210807 76 77 2.0 2.0 0.00 0.09 0.09 99 1009.6
20260503210305 76 62 3.0 3.0 0.00 0.09 0.09 99 1009.5
20260503205754 76 95 1.0 1.0 0.00 0.09 0.09 99 1009.2
20260503205251 76 73 1.0 2.0 0.00 0.09 0.09 99 1009.3
20260503204747 76 80 1.0 1.0 0.00 0.09 0.09 99 1009.1
20260503204245 76 81 1.0 1.0 0.00 0.09 0.09 99 1009.1
20260503203743 77 84 0.0 0.0 0.00 0.09 0.09 99 1009.2
20260503203240 77 74 1.0 1.0 0.00 0.09 0.09 99 1009.3
20260503202737 76 97 0.0 0.0 0.00 0.09 0.09 99 1009.3
20260503202235 76 94 0.0 0.0 0.00 0.09 0.09 99 1009.2
20260503201732 76 90 0.0 0.0 0.00 0.09 0.09 99 1009.2
20260503201230 76 101 0.0 0.0 0.00 0.09 0.09 99 1009.3
20260503200726 76 171 1.0 2.0 0.00 0.09 0.09 99 1009.1
20260503200222 76 140 2.0 2.0 0.00 0.09 0.09 99 1009.1
20260503195719 76 115 1.0 1.0 0.05 0.09 0.09 99 1009.5
20260503195216 76 93 0.0 0.0 0.19 0.09 0.09 99 1009.5
20260503194714 76 109 0.0 0.0 0.19 0.09 0.09 99 1009.5
20260503194209 76 81 1.0 1.0 0.35 0.06 0.06 99 1009.4
20260503193706 77 69 2.0 3.0 0.31 0.05 0.05 99 1009.8
20260503193202 78 22 4.0 4.0 0.00 0.00 0.00 98 1009.7
20260503192657 78 53 5.0 6.0 0.00 0.00 0.00 98 1009.9
20260503192153 78 78 2.0 2.0 0.00 0.00 0.00 99 1009.8
20260503191649 78 99 1.0 1.0 0.00 0.00 0.00 99 1009.8
20260503191147 78 89 1.0 1.0 0.00 0.00 0.00 99 1009.5
20260503190644 78 89 0.0 0.0 0.00 0.00 0.00 99 1009.7
20260503190141 78 85 0.0 0.0 0.00 0.00 0.00 99 1010.0
20260503185637 78 94 0.0 0.0 0.00 0.00 0.00 99 1009.7
20260503185132 78 91 0.0 0.0 0.00 0.00 0.00 99 1009.6
20260503184628 78 91 0.0 0.0 0.00 0.00 0.00 99 1009.9
20260503184125 78 93 0.0 0.0 0.00 0.00 0.00 99 1009.9
20260503183621 78 101 0.0 0.0 0.00 0.00 0.00 99 1009.7
20260503183118 78 103 0.0 0.0 0.00 0.00 0.00 99 1009.9
20260503182617 78 109 0.0 0.0 0.00 0.00 0.00 99 1009.8
20260503182115 78 116 0.0 1.0 0.00 0.00 0.00 99 1009.8
20260503181611 78 108 0.0 0.0 0.00 0.00 0.00 99 1009.9
20260503181108 78 96 0.0 0.0 0.00 0.00 0.00 99 1009.9
20260503180605 78 96 0.0 0.0 0.00 0.00 0.00 99 1010.2
20260503180103 78 104 0.0 0.0 0.00 0.00 0.00 99 1010.1
20260503175559 78 95 0.0 0.0 0.00 0.00 0.00 99 1009.9
20260503175057 77 79 1.0 1.0 0.00 0.00 0.00 99 1010.1
20260503174553 77 90 0.0 0.0 0.00 0.00 0.00 99 1010.1
20260503174050 77 89 0.0 0.0 0.00 0.00 0.00 99 1009.9
20260503173545 77 105 0.0 0.0 0.00 0.00 0.00 99 1009.9
20260503173042 77 109 0.0 0.0 0.00 0.00 0.00 99 1009.8
20260503172539 77 110 0.0 0.0 0.00 0.00 0.00 99 1009.6
20260503172036 77 107 0.0 0.0 0.00 0.00 0.00 99 1009.9
20260503171533 78 99 0.0 0.0 0.00 0.00 0.00 99 1010.0
20260503171030 77 105 0.0 0.0 0.00 0.00 0.00 99 1009.9
20260503170526 77 109 0.0 0.0 0.00 0.00 0.00 99 1009.8